Regional Weather Roundup
Issued by NWS

Home | Current Version | Previous Version | Text Only | Print | Product List | Glossary On
Versions: 1 2 3 4 5 6 7 8 9 10 11 12 13 14 15 16 17 18 19 20 21 22 23 24 25 26 27 28 29 30 31 32 33 34 35 36 37 38 39 40 41 42 43 44 45 46 47 48 49 50
000
ASHW40 PHFO 200543
RWRHI

WEATHER ROUNDUP FOR HAWAII
NATIONAL WEATHER SERVICE HONOLULU HI
700 PM HST THU OCT 19 2017

THIS IS AN AUTOMATED REPORT THAT HAS NOT BEEN QUALITY CONTROLLED.

NOTE..."FAIR" INDICATES FEW OR NO CLOUDS BELOW 12,000 FEET WITH NO
SIGNIFICANT WEATHER AND/OR OBSTRUCTIONS TO VISIBILITY.

* - THESE SITES REPORT LIMITED FIELDS
# - BUOY DATA PROVIDED BY PACIFIC ISLANDS OCEAN OBSERVING SYSTEM.

HIZ001>004-200600-
KAUAI-NIIHAU-

CITY           SKY/WX    TMP DP  RH WIND       PRES   REMARKS
LIHUE APT      MOCLDY    80  69  69 NE22      30.13R
PORT ALLEN*      N/A     77 N/A N/A E21G33      N/A
POIPU*           N/A     79 N/A N/A NE12G29     N/A
PRINCEVILLE*     N/A     73 N/A N/A SE5G10      N/A
KOKOLE POINT*  NOT AVBL
MOLOAA DAIRY*    N/A     73  70  88 E7G18       N/A
WAIMEA HTS*      N/A     75  66  73 E15G26      N/A
PUU OPAE*        N/A     72  59  64 SE6G17      N/A
PUU LUA*       NOT AVBL
MAKAHA RIDGE*    N/A     70  64  83 N1G7        N/A
$$

HIZ005>011-200600-
OAHU-

CITY           SKY/WX    TMP DP  RH WIND       PRES   REMARKS
HONOLULU       FAIR      78  64  61 E22G31    30.08R
KALAELOA       MOCLDY    76  64  66 NE8G22    30.09R
KANEOHE MCB    LGT RAIN  80  70  71 NE12G24   30.08R
WHEELER FIELD  CLOUDY    73  66  78 NE9       30.11R
BELLOWS*         N/A    N/A N/A N/A NE24G31     N/A
KAHUKU*          N/A    N/A N/A N/A NE10G22     N/A
WHEELER*         N/A    N/A N/A N/A NE8G17      N/A
WAIANAE HARBOR   N/A    N/A N/A N/A E12G26      N/A
DILLINGHAM*      N/A     82  73  74 SW7G16      N/A
KAHUKU TRN*      N/A     82  73  74 W14G28      N/A
KAWAILOA*        N/A     72  64  78 E15G32      N/A
KII*             N/A     79  68  69 E21G30      N/A
MAKUA RANGE*     N/A     70  57  64 W5G25       N/A
OAHU FOREST NW   N/A     70  64  83 E24G49      N/A
SCHOFIELD BRK*   N/A     73  64  73 MISG        N/A
SCHOFIELD S*   NOT AVBL
WAIANAE VLY*     N/A     82  72  69 S6G28       N/A
KUAOKALA*        N/A     73  64  73 NE20G32     N/A
HONOULIUULI*   NOT AVBL
MOKUOLOE IS*   NOT AVBL
PALEHUA*         N/A     64  63  94 NE10G29     N/A
WAIAWA PHB*    NOT AVBL
$$

HIZ012>013-200600-
MOLOKAI-

CITY           SKY/WX    TMP DP  RH WIND       PRES   REMARKS
MOLOKAI AIRPT  RAIN      76  67  73 NE17G24   30.09R
KALAUPAPA      NOT AVBL
MAKAPULAPAI*     N/A     77  66  69 E26G37      N/A
MOLOKAI 1*     NOT AVBL
PUU ALII*        N/A     58  58  99 N6G23       N/A
$$

HIZ016-200600-
KAHOOLAWE-

CITY           SKY/WX    TMP DP  RH WIND       PRES   REMARKS
KAHOOLAWE*     NOT AVBL
HAKIOAWA*        N/A     75  64  69 CALM      30.49R
HONOKANAIA*      N/A     81  65  58 NE9G33    29.98R
KANELOA*         N/A     75  64  69 E24G39    30.09R
KEALIALALO*    NOT AVBL
LUA MAKIKA*    NOT AVBL
$$

HIZ014>015-200600-
LANAI-

CITY           SKY/WX    TMP DP  RH WIND       PRES   REMARKS
LANAI CITY     FAIR      71  62  73 NE31G37   30.08R
LANAI 1*       NOT AVBL
$$

HIZ017>028-200600-
MAUI-

CITY           SKY/WX    TMP DP  RH WIND       PRES   REMARKS
KAHULUI        MOCLDY    79  68  69 NE17      30.08R
KAPALUA-W MAUI NOT AVBL
HANA AIRPORT   NOT AVBL
HANA*            N/A     72 N/A N/A S3          N/A
HALEAKALA SUMM   N/A     45  16  31 NE35G51     N/A
MAALAEA BAY*     N/A     77 N/A N/A NE21G33     N/A
HALEAKALA*     NOT AVBL
KAUPO GAP*     NOT AVBL
KULA 1*          N/A     53  42  65 SE5         N/A
$$

HIZ023>026-200600-
BIG ISLAND OF HAWAII COAST AND LOWER SLOPES-

CITY           SKY/WX    TMP DP  RH WIND       PRES   REMARKS
KAILUA KONA    FAIR      81  67  62 VRB6      29.98R
HILO           CLOUDY    76  66  71 N18G25    30.09R
HONOKAA*         N/A     70 N/A N/A VRB1        N/A
KAWAIHAE MWT*    N/A     84 N/A N/A SW3G36      N/A
KAWAIHAE*        N/A     88 N/A N/A SE13G25   29.96F
SOUTH POINT*     N/A     73 N/A N/A NW13G18     N/A
UPOLU AIRPORT* NOT AVBL
KAMUELA*         N/A     64  57  77 NE22G38   30.11S
HAKALAU*         N/A     46  46 100 W3G9        N/A
KALOKO-HONOKO*   N/A     81  70  69 SE5       29.98R
PALI 2*          N/A     66  54  63 S29G43      N/A
KEALAKOMO*       N/A     79  61  53 VRB24G39    N/A
KAUPULEHU*       N/A     73  63  68 W8G17       N/A
KAPAPALA*        N/A     69  60  72 N3G16       N/A
LOWER KAHUKU*    N/A     66  64  94 VRB1        N/A
PUHE CS*         N/A     82  57  42 S6G24       N/A
PUHO CS*         N/A     79  70  74 NE1         N/A
PTA KEAMUKU*     N/A     63  52  67 NE28G43     N/A
WAIKOLOA*        N/A     79  52  38 SE18G45     N/A
$$

HIZ027>028-200600-
BIG ISLAND OF HAWAII INTERIOR AND SUMMMITS-

CITY           SKY/WX    TMP DP  RH WIND       PRES   REMARKS
BRADSHAW FIELD FAIR      55  42  62 S7        30.33S
MK VISITOR CEN   N/A     57  -4   8 NE26        N/A
MAUNA KEA*       N/A     34  -8  16 NE32        N/A  WCI  20
MAUNA LOA*       N/A     46 -15   7 MISG        N/A
MAUNA LOA 1*   NOT AVBL
PTA KIPUKA*      N/A     70  63  78 NE3G20      N/A
PTA RANGE 17*    N/A     59  48  67 W18G31      N/A
PTA WEST*        N/A     64  57  77 W2G9        N/A
NENE CABIN*      N/A     52  34  50 NE3         N/A
AHUMOA*          N/A     52  45  76 E5          N/A
PTA PORTABLE*  NOT AVBL
PUU MALI*        N/A    N/A N/A N/A E20G32      N/A
$$

HIC003-200600-
NORTHWEST ISLANDS-

CITY           SKY/WX    TMP DP  RH WIND       PRES   REMARKS
MIDWAY ISLAND  MOCLDY    79  72  78 E13       30.20S
MIDWAY NOS*      N/A     79 N/A N/A MISG      30.19S
FRENCH FRIGATE NOT AVBL
$$

PHZ110>124-180-200600-
BUOY REPORTS

STATION/POSITION TIME  TEMP    WIND        PRES    WAVE   SWELL
                       AIR SEA DIR/SP/G            HT/PER HT/DIR
                 (UTC) (F)     (DEG/KT/KT) (MB)    (FT/S) (FT/D)
BUOY 51001       0520   79 80   70/ 21/ 25 1021.9
BUOY 51101       0450   79 80   60/ 21/ 25 1021.6R  10/ 9   7/ 80
BUOY 51100       NOT AVBL
BUOY 51002       0520   80 80   60/ 19/ 25 1015.3
BUOY 51003       0450   81 81   60/ 19/ 21 1016.2R   9/ 9   5/ 90
BUOY 51004       0520   79 80   40/ 19/ 25 1015.3
WAIMEA BAY#      0502      78                N/A     8/ 9   3/320
MOKAPU POINT#    0504      80                N/A    10/ 9   2/ 20
LANAI#           NOT AVBL
BARBERS PT 2#    NOT AVBL
PAUWELA#         NOT AVBL
HILO#            0457      80                N/A     8/ 8   2/ 20
KANEOHE BAY#     NOT AVBL
KANEOHE BAY 2#   NOT AVBL
HANALEI#         0522      80                N/A    10/ 9   3/ 40
KAHULUI HARBOR   0518   78 78   50/ 19/ 27 1019.2
HONOLULU HARBOR  0518   79 80   50/  7/ 13 1019.6
PEARL HARBOR#    0500      80                N/A     3/ 6   2/160
KILO NALU        NOT AVBL
HILO HARBOR      0518   74 78  350/ 19/ 21 1018.9
MOKUOLOE         0436   78 79   70/ 18/ 23 1019.4R
NAWILIWILI       0518   78      40/ 14/ 18 1020.0
WHOTS BUOY       NOT AVBL
BUOY 51028       NOT AVBL
$$

......................KEY........................................
  SKY/WX - SKY CONDITIONS/PRESENT WEATHER
  TMP    - TEMPERATURE IN FAHRENHEIT
  DWPT   - DEWPOINT IN FAHRENHEIT
  RH     - RELATIVE HUMIDITY IN PERCENT
  WIND   - DIRECTION AND SPEED /MPH FOR ISLANDS...KTS FOR BUOYS/
  PRES   - MEAN SEA LEVEL PRESSURE IN INCHES OF HG
  VSB    - VISIBILITY IN MILES
  HX     - HEAT INDEX
  WCI    - WIND CHILL INDEX
  VRB    - VARIABLE WIND DIRECTION
  N/A    - NOT AVAILABLE




USA.gov is the U.S. government's official web portal to all federal, state and local government web resources and services.